Вернуться в каталог

CZ-6A DEB

АктивенPO
NORAD 54917·DEBRIS·🇨🇳 China

Запущен Nov 11, 2022 с Taiyuan Satellite Launch Center

Loading…

Ближайшие Пролёты (ближайшие 24 часа)

TLE

СвежийSource: Space-Track

Эпоха: Sep 13, 2026, 04:25 UTC

1 54917U 22151RE  26256.18420450  .00006072  00000-0  85456-3 0  9998
2 54917  98.6348 334.0700 0065835 351.0182   8.9842 14.76238825200245

Отслеживайте CZ-6A DEB в реальном времени с AllMySat

Download on the App Store